Time,TemperatureF,DewpointF,PressureIn,WindDirection,WindDirectionDegrees,WindSpeedMPH,WindSpeedGustMPH,Humidity,HourlyPrecipIn,Conditions,Clouds,dailyrainin,SoftwareType,DateUTC
2013-02-01 00:02:00,37.0,-99.9,29.78,North,9,14.0,20.0,-999,-99.99,,,-99.99,,2013-02-01 09:02:00,
2013-02-01 00:11:00,37.0,-99.9,29.78,North,3,10.0,13.0,-999,-99.99,,,-99.99,,2013-02-01 09:11:00,
2013-02-01 00:22:00,37.0,-99.9,29.77,North,10,13.0,20.0,-999,-99.99,,,-99.99,,2013-02-01 09:22:00,
2013-02-01 00:32:00,37.0,-99.9,29.77,North,8,9.0,20.0,-999,-99.99,,,-99.99,,2013-02-01 09:32:00,
2013-02-01 00:42:00,37.0,-99.9,29.77,North,3,12.0,19.0,-999,-99.99,,,-99.99,,2013-02-01 09:42:00,
2013-02-01 00:52:00,36.0,-99.9,29.77,North,3,14.0,19.0,-999,-99.99,,,-99.99,,2013-02-01 09:52:00,
2013-02-01 01:01:00,36.0,-99.9,29.76,North,-999,14.0,21.0,-999,-99.99,,,-99.99,,2013-02-01 10:01:00,
2013-02-01 01:11:00,36.0,-99.9,29.76,North,7,17.0,25.0,-999,-99.99,,,-99.99,,2013-02-01 10:11:00,
2013-02-01 01:21:00,37.0,-99.9,29.75,North,-999,13.0,23.0,-999,-99.99,,,-99.99,,2013-02-01 10:21:00,
2013-02-01 01:32:00,37.0,-99.9,29.75,North,-999,17.0,22.0,-999,-99.99,,,-99.99,,2013-02-01 10:32:00,
2013-02-01 01:43:00,37.0,-99.9,29.75,North,360,14.0,19.0,-999,-99.99,,,-99.99,,2013-02-01 10:43:00,
2013-02-01 01:53:00,37.0,-99.9,29.75,North,5,14.0,20.0,-999,-99.99,,,-99.99,,2013-02-01 10:53:00,
2013-02-01 02:02:00,37.0,-99.9,29.75,North,5,14.0,20.0,-999,-99.99,,,-99.99,,2013-02-01 11:02:00,
2013-02-01 02:11:00,37.0,-99.9,29.74,North,3,16.0,23.0,-999,-99.99,,,-99.99,,2013-02-01 11:11:00,
2013-02-01 02:22:00,37.0,-99.9,29.74,North,2,17.0,23.0,-999,-99.99,,,-99.99,,2013-02-01 11:22:00,
2013-02-01 02:30:00,37.0,-99.9,29.72,North,4,14.0,24.0,-999,-99.99,,,-99.99,,2013-02-01 11:30:00,
2013-02-01 02:32:00,37.0,-99.9,29.73,North,8,18.0,25.0,-999,-99.99,,,-99.99,,2013-02-01 11:32:00,
2013-02-01 02:42:00,37.0,-99.9,29.73,North,3,20.0,26.0,-999,-99.99,,,-99.99,,2013-02-01 11:42:00,
2013-02-01 02:53:00,37.0,-99.9,29.72,North,4,14.0,24.0,-999,-99.99,,,-99.99,,2013-02-01 11:53:00,
2013-02-01 03:03:00,37.0,-99.9,29.72,North,4,14.0,24.0,-999,-99.99,,,-99.99,,2013-02-01 12:03:00,
2013-02-01 03:12:00,37.0,-99.9,29.72,North,4,14.0,24.0,-999,-99.99,,,-99.99,,2013-02-01 12:12:00,
2013-02-01 03:23:00,37.0,-99.9,29.72,North,4,14.0,24.0,-999,-99.99,,,-99.99,,2013-02-01 12:23:00,
2013-02-01 03:42:00,38.0,-99.9,29.71,North,6,17.0,26.0,-999,-99.99,,,-99.99,,2013-02-01 12:42:00,
2013-02-01 03:52:00,38.0,-99.9,29.71,North,6,18.0,28.0,-999,-99.99,,,-99.99,,2013-02-01 12:52:00,
2013-02-01 04:02:00,38.0,-99.9,29.71,North,6,20.0,26.0,-999,-99.99,,,-99.99,,2013-02-01 13:02:00,
2013-02-01 04:12:00,38.0,-99.9,29.70,North,5,21.0,28.0,-999,-99.99,,,-99.99,,2013-02-01 13:12:00,
2013-02-01 04:22:00,38.0,-99.9,29.70,North,2,21.0,27.0,-999,-99.99,,,-99.99,,2013-02-01 13:22:00,
2013-02-01 04:33:00,38.0,-99.9,29.70,North,4,17.0,30.0,-999,-99.99,,,-99.99,,2013-02-01 13:33:00,
2013-02-01 04:43:00,37.0,-99.9,29.69,North,2,18.0,25.0,-999,-99.99,,,-99.99,,2013-02-01 13:43:00,
2013-02-01 04:53:00,38.0,-99.9,29.69,North,4,19.0,26.0,-999,-99.99,,,-99.99,,2013-02-01 13:53:00,
2013-02-01 05:03:00,38.0,-99.9,29.68,North,357,15.0,28.0,-999,-99.99,,,-99.99,,2013-02-01 14:03:00,
2013-02-01 05:12:00,38.0,-99.9,29.68,North,10,16.0,27.0,-999,-99.99,,,-99.99,,2013-02-01 14:12:00,
2013-02-01 05:22:00,38.0,-99.9,29.67,North,360,19.0,27.0,-999,-99.99,,,-99.99,,2013-02-01 14:22:00,
2013-02-01 05:33:00,38.0,-99.9,29.67,North,-999,19.0,27.0,-999,-99.99,,,-99.99,,2013-02-01 14:33:00,
2013-02-01 05:42:00,38.0,-99.9,29.67,North,6,21.0,27.0,-999,-99.99,,,-99.99,,2013-02-01 14:42:00,
2013-02-01 05:53:00,38.0,-99.9,29.67,North,6,17.0,27.0,-999,-99.99,,,-99.99,,2013-02-01 14:53:00,
2013-02-01 06:03:00,38.0,-99.9,29.67,North,8,17.0,28.0,-999,-99.99,,,-99.99,,2013-02-01 15:03:00,
2013-02-01 06:12:00,38.0,-99.9,29.67,North,5,20.0,24.0,-999,-99.99,,,-99.99,,2013-02-01 15:12:00,
2013-02-01 06:22:00,38.0,-99.9,29.67,North,5,21.0,27.0,-999,-99.99,,,-99.99,,2013-02-01 15:22:00,
2013-02-01 06:33:00,38.0,-99.9,29.66,North,5,22.0,29.0,-999,-99.99,,,-99.99,,2013-02-01 15:33:00,
2013-02-01 06:42:00,37.0,-99.9,29.66,North,4,18.0,25.0,-999,-99.99,,,-99.99,,2013-02-01 15:42:00,
2013-02-01 06:52:00,37.0,-99.9,29.65,North,353,15.0,24.0,-999,-99.99,,,-99.99,,2013-02-01 15:52:00,
2013-02-01 07:03:00,37.0,-99.9,29.65,North,358,15.0,24.0,-999,-99.99,,,-99.99,,2013-02-01 16:03:00,
2013-02-01 07:12:00,37.0,-99.9,29.65,North,358,15.0,24.0,-999,-99.99,,,-99.99,,2013-02-01 16:12:00,
2013-02-01 07:22:00,37.0,-99.9,29.65,North,358,15.0,24.0,-999,-99.99,,,-99.99,,2013-02-01 16:22:00,
2013-02-01 07:33:00,37.0,-99.9,29.65,North,358,15.0,24.0,-999,-99.99,,,-99.99,,2013-02-01 16:33:00,
2013-02-01 07:43:00,38.0,-99.9,29.64,North,356,15.0,22.0,-999,-99.99,,,-99.99,,2013-02-01 16:43:00,
2013-02-01 07:53:00,38.0,-99.9,29.64,North,357,14.0,23.0,-999,-99.99,,,-99.99,,2013-02-01 16:53:00,
2013-02-01 08:03:00,38.0,-99.9,29.63,North,356,14.0,21.0,-999,-99.99,,,-99.99,,2013-02-01 17:03:00,
2013-02-01 08:12:00,38.0,-99.9,29.63,North,357,13.0,22.0,-999,-99.99,,,-99.99,,2013-02-01 17:12:00,
2013-02-01 08:22:00,38.0,-99.9,29.63,North,358,14.0,20.0,-999,-99.99,,,-99.99,,2013-02-01 17:22:00,
2013-02-01 08:32:00,38.0,-99.9,29.62,North,359,11.0,19.0,-999,-99.99,,,-99.99,,2013-02-01 17:32:00,
2013-02-01 08:42:00,38.0,-99.9,29.62,North,354,12.0,21.0,-999,-99.99,,,-99.99,,2013-02-01 17:42:00,
2013-02-01 08:53:00,38.0,-99.9,29.62,North,357,11.0,20.0,-999,-99.99,,,-99.99,,2013-02-01 17:53:00,
2013-02-01 09:03:00,38.0,-99.9,29.62,North,357,11.0,20.0,-999,-99.99,,,-99.99,,2013-02-01 18:03:00,
2013-02-01 09:12:00,39.0,-99.9,29.62,North,358,10.0,18.0,-999,-99.99,,,-99.99,,2013-02-01 18:12:00,
2013-02-01 09:23:00,39.0,-99.9,29.62,North,359,11.0,17.0,-999,-99.99,,,-99.99,,2013-02-01 18:23:00,
2013-02-01 09:33:00,39.0,-99.9,29.62,North,5,11.0,16.0,-999,-99.99,,,-99.99,,2013-02-01 18:33:00,
2013-02-01 09:42:00,39.0,-99.9,29.62,North,7,13.0,21.0,-999,-99.99,,,-99.99,,2013-02-01 18:42:00,
2013-02-01 09:53:00,39.0,-99.9,29.62,North,359,9.0,18.0,-999,-99.99,,,-99.99,,2013-02-01 18:53:00,
2013-02-01 10:03:00,39.0,-99.9,29.62,North,5,11.0,17.0,-999,-99.99,,,-99.99,,2013-02-01 19:03:00,
2013-02-01 10:12:00,39.0,-99.9,29.62,North,5,12.0,16.0,-999,-99.99,,,-99.99,,2013-02-01 19:12:00,
2013-02-01 10:22:00,39.0,-99.9,29.62,North,359,10.0,19.0,-999,-99.99,,,-99.99,,2013-02-01 19:22:00,
2013-02-01 10:33:00,39.0,-99.9,29.62,North,360,10.0,17.0,-999,-99.99,,,-99.99,,2013-02-01 19:33:00,
2013-02-01 10:42:00,39.0,-99.9,29.62,North,2,10.0,15.0,-999,-99.99,,,-99.99,,2013-02-01 19:42:00,
2013-02-01 10:52:00,39.0,-99.9,29.62,North,1,9.0,14.0,-999,-99.99,,,-99.99,,2013-02-01 19:52:00,
2013-02-01 11:02:00,39.0,-99.9,29.62,North,4,11.0,15.0,-999,-99.99,,,-99.99,,2013-02-01 20:02:00,
2013-02-01 11:12:00,39.0,-99.9,29.62,North,2,8.0,13.0,-999,-99.99,,,-99.99,,2013-02-01 20:12:00,
2013-02-01 11:22:00,39.0,-99.9,29.62,North,359,10.0,12.0,-999,-99.99,,,-99.99,,2013-02-01 20:22:00,
2013-02-01 11:32:00,39.0,-99.9,29.62,North,352,5.0,11.0,-999,-99.99,,,-99.99,,2013-02-01 20:32:00,
2013-02-01 11:42:00,39.0,-99.9,29.62,North,358,6.0,13.0,-999,-99.99,,,-99.99,,2013-02-01 20:42:00,
2013-02-01 11:52:00,39.0,-99.9,29.62,North,350,5.0,11.0,-999,-99.99,,,-99.99,,2013-02-01 20:52:00,
2013-02-01 12:02:00,39.0,-99.9,29.61,North,353,7.0,11.0,-999,-99.99,,,-99.99,,2013-02-01 21:02:00,
2013-02-01 12:12:00,39.0,-99.9,29.61,NNW,346,5.0,10.0,-999,-99.99,,,-99.99,,2013-02-01 21:12:00,
2013-02-01 12:22:00,39.0,-99.9,29.61,NNW,347,6.0,13.0,-999,-99.99,,,-99.99,,2013-02-01 21:22:00,
2013-02-01 12:32:00,39.0,-99.9,29.61,North,354,6.0,13.0,-999,-99.99,,,-99.99,,2013-02-01 21:32:00,
2013-02-01 12:42:00,39.0,-99.9,29.61,North,357,4.0,10.0,-999,-99.99,,,-99.99,,2013-02-01 21:42:00,
2013-02-01 12:53:00,39.0,-99.9,29.60,North,358,5.0,9.0,-999,-99.99,,,-99.99,,2013-02-01 21:53:00,
2013-02-01 13:03:00,39.0,-99.9,29.60,North,351,5.0,10.0,-999,-99.99,,,-99.99,,2013-02-01 22:03:00,
2013-02-01 13:11:00,39.0,-99.9,29.60,North,351,5.0,9.0,-999,-99.99,,,-99.99,,2013-02-01 22:11:00,
2013-02-01 13:22:00,39.0,-99.9,29.60,North,350,5.0,11.0,-999,-99.99,,,-99.99,,2013-02-01 22:22:00,
2013-02-01 13:32:00,39.0,-99.9,29.60,North,355,5.0,9.0,-999,-99.99,,,-99.99,,2013-02-01 22:32:00,
2013-02-01 13:42:00,39.0,-99.9,29.59,North,352,6.0,9.0,-999,-99.99,,,-99.99,,2013-02-01 22:42:00,
2013-02-01 13:52:00,39.0,-99.9,29.59,North,358,6.0,10.0,-999,-99.99,,,-99.99,,2013-02-01 22:52:00,
2013-02-01 14:02:00,39.0,-99.9,29.59,North,354,6.0,11.0,-999,-99.99,,,-99.99,,2013-02-01 23:02:00,
2013-02-01 14:11:00,39.0,-99.9,29.58,North,357,7.0,11.0,-999,-99.99,,,-99.99,,2013-02-01 23:11:00,
2013-02-01 14:22:00,39.0,-99.9,29.58,North,353,5.0,10.0,-999,-99.99,,,-99.99,,2013-02-01 23:22:00,
2013-02-01 14:32:00,39.0,-99.9,29.58,North,354,6.0,10.0,-999,-99.99,,,-99.99,,2013-02-01 23:32:00,
2013-02-01 14:42:00,39.0,-99.9,29.58,North,356,4.0,9.0,-999,-99.99,,,-99.99,,2013-02-01 23:42:00,
2013-02-01 14:52:00,39.0,-99.9,29.58,NNW,346,6.0,10.0,-999,-99.99,,,-99.99,,2013-02-01 23:52:00,
2013-02-01 15:02:00,39.0,-99.9,29.58,North,350,5.0,9.0,-999,-99.99,,,-99.99,,2013-02-02 00:02:00,
2013-02-01 15:11:00,39.0,-99.9,29.57,NNW,344,4.0,9.0,-999,-99.99,,,-99.99,,2013-02-02 00:11:00,
2013-02-01 15:22:00,39.0,-99.9,29.57,NNW,343,4.0,9.0,-999,-99.99,,,-99.99,,2013-02-02 00:22:00,
2013-02-01 15:32:00,39.0,-99.9,29.57,NNW,347,5.0,8.0,-999,-99.99,,,-99.99,,2013-02-02 00:32:00,
2013-02-01 15:42:00,39.0,-99.9,29.56,North,349,4.0,8.0,-999,-99.99,,,-99.99,,2013-02-02 00:42:00,
2013-02-01 15:52:00,39.0,-99.9,29.56,NNW,347,5.0,8.0,-999,-99.99,,,-99.99,,2013-02-02 00:52:00,
2013-02-01 16:03:00,39.0,-99.9,29.56,North,350,4.0,9.0,-999,-99.99,,,-99.99,,2013-02-02 01:03:00,
2013-02-01 16:11:00,39.0,-99.9,29.56,North,357,5.0,8.0,-999,-99.99,,,-99.99,,2013-02-02 01:11:00,
2013-02-01 16:22:00,39.0,-99.9,29.56,North,354,4.0,7.0,-999,-99.99,,,-99.99,,2013-02-02 01:22:00,
2013-02-01 16:32:00,39.0,-99.9,29.55,NNW,344,4.0,7.0,-999,-99.99,,,-99.99,,2013-02-02 01:32:00,
2013-02-01 16:42:00,39.0,-99.9,29.55,North,351,4.0,7.0,-999,-99.99,,,-99.99,,2013-02-02 01:42:00,
2013-02-01 16:52:00,39.0,-99.9,29.54,North,2,3.0,6.0,-999,-99.99,,,-99.99,,2013-02-02 01:52:00,
2013-02-01 17:01:00,39.0,-99.9,29.54,NNW,348,3.0,6.0,-999,-99.99,,,-99.99,,2013-02-02 02:01:00,
2013-02-01 17:11:00,39.0,-99.9,29.54,North,359,4.0,6.0,-999,-99.99,,,-99.99,,2013-02-02 02:11:00,
2013-02-01 17:22:00,39.0,-99.9,29.54,North,2,4.0,5.0,-999,-99.99,,,-99.99,,2013-02-02 02:22:00,
2013-02-01 17:32:00,39.0,-99.9,29.54,North,357,4.0,6.0,-999,-99.99,,,-99.99,,2013-02-02 02:32:00,
2013-02-01 17:42:00,39.0,-99.9,29.53,North,360,3.0,6.0,-999,-99.99,,,-99.99,,2013-02-02 02:42:00,
2013-02-01 17:52:00,39.0,-99.9,29.53,NNE,15,3.0,6.0,-999,-99.99,,,-99.99,,2013-02-02 02:52:00,
2013-02-01 18:02:00,39.0,-99.9,29.54,North,4,3.0,5.0,-999,-99.99,,,-99.99,,2013-02-02 03:02:00,
2013-02-01 18:11:00,39.0,-99.9,29.54,North,358,4.0,6.0,-999,-99.99,,,-99.99,,2013-02-02 03:11:00,
2013-02-01 18:22:00,39.0,-99.9,29.54,North,354,4.0,7.0,-999,-99.99,,,-99.99,,2013-02-02 03:22:00,
2013-02-01 18:32:00,39.0,-99.9,29.53,North,356,4.0,6.0,-999,-99.99,,,-99.99,,2013-02-02 03:32:00,
2013-02-01 18:42:00,39.0,-99.9,29.53,North,356,4.0,9.0,-999,-99.99,,,-99.99,,2013-02-02 03:42:00,
2013-02-01 18:52:00,39.0,-99.9,29.53,North,357,5.0,6.0,-999,-99.99,,,-99.99,,2013-02-02 03:52:00,
2013-02-01 19:02:00,39.0,-99.9,29.53,North,354,4.0,7.0,-999,-99.99,,,-99.99,,2013-02-02 04:02:00,
2013-02-01 19:11:00,39.0,-99.9,29.53,North,357,5.0,7.0,-999,-99.99,,,-99.99,,2013-02-02 04:11:00,
2013-02-01 19:22:00,38.0,-99.9,29.53,North,353,3.0,7.0,-999,-99.99,,,-99.99,,2013-02-02 04:22:00,
2013-02-01 19:33:00,39.0,-99.9,29.53,North,352,3.0,6.0,-999,-99.99,,,-99.99,,2013-02-02 04:33:00,
2013-02-01 19:42:00,38.0,-99.9,29.53,North,2,3.0,7.0,-999,-99.99,,,-99.99,,2013-02-02 04:42:00,
2013-02-01 19:52:00,38.0,-99.9,29.54,North,352,4.0,6.0,-999,-99.99,,,-99.99,,2013-02-02 04:52:00,
2013-02-01 20:03:00,38.0,-99.9,29.53,North,358,3.0,5.0,-999,-99.99,,,-99.99,,2013-02-02 05:03:00,
2013-02-01 20:12:00,38.0,-99.9,29.53,NNW,335,3.0,6.0,-999,-99.99,,,-99.99,,2013-02-02 05:12:00,
2013-02-01 20:22:00,39.0,-99.9,29.53,North,352,3.0,5.0,-999,-99.99,,,-99.99,,2013-02-02 05:22:00,
2013-02-01 20:33:00,39.0,-99.9,29.53,North,352,3.0,5.0,-999,-99.99,,,-99.99,,2013-02-02 05:33:00,
2013-02-01 20:42:00,39.0,-99.9,29.53,North,352,3.0,5.0,-999,-99.99,,,-99.99,,2013-02-02 05:42:00,
2013-02-01 20:52:00,39.0,-99.9,29.52,North,350,4.0,5.0,-999,-99.99,,,-99.99,,2013-02-02 05:52:00,
2013-02-01 21:02:00,39.0,-99.9,29.52,North,356,4.0,7.0,-999,-99.99,,,-99.99,,2013-02-02 06:02:00,
2013-02-01 21:12:00,39.0,-99.9,29.52,North,-999,6.0,8.0,-999,-99.99,,,-99.99,,2013-02-02 06:12:00,
2013-02-01 21:22:00,38.0,-99.9,29.52,North,2,2.0,4.0,-999,-99.99,,,-99.99,,2013-02-02 06:22:00,
2013-02-01 21:32:00,38.0,-99.9,29.52,North,357,3.0,4.0,-999,-99.99,,,-99.99,,2013-02-02 06:32:00,
2013-02-01 21:42:00,38.0,-99.9,29.52,North,349,2.0,4.0,-999,-99.99,,,-99.99,,2013-02-02 06:42:00,
2013-02-01 21:52:00,38.0,-99.9,29.52,NNW,347,2.0,4.0,-999,-99.99,,,-99.99,,2013-02-02 06:52:00,
2013-02-01 22:02:00,38.0,-99.9,29.52,North,356,2.0,5.0,-999,-99.99,,,-99.99,,2013-02-02 07:02:00,
2013-02-01 22:12:00,38.0,-99.9,29.52,North,360,2.0,2.0,-999,-99.99,,,-99.99,,2013-02-02 07:12:00,
2013-02-01 22:21:00,38.0,-99.9,29.53,North,5,2.0,4.0,-999,-99.99,,,-99.99,,2013-02-02 07:21:00,
2013-02-01 22:32:00,38.0,-99.9,29.52,North,5,3.0,4.0,-999,-99.99,,,-99.99,,2013-02-02 07:32:00,
2013-02-01 22:42:00,38.0,-99.9,29.53,North,357,2.0,3.0,-999,-99.99,,,-99.99,,2013-02-02 07:42:00,
2013-02-01 22:52:00,38.0,-99.9,29.52,North,5,1.0,2.0,-999,-99.99,,,-99.99,,2013-02-02 07:52:00,
2013-02-01 23:01:00,39.0,-99.9,29.52,NNW,347,2.0,3.0,-999,-99.99,,,-99.99,,2013-02-02 08:01:00,
2013-02-01 23:11:00,38.0,-99.9,29.52,NNW,341,3.0,5.0,-999,-99.99,,,-99.99,,2013-02-02 08:11:00,
2013-02-01 23:21:00,38.0,-99.9,29.52,North,350,3.0,5.0,-999,-99.99,,,-99.99,,2013-02-02 08:21:00,
2013-02-01 23:32:00,39.0,-99.9,29.52,North,353,3.0,4.0,-999,-99.99,,,-99.99,,2013-02-02 08:32:00,
2013-02-01 23:42:00,38.0,-99.9,29.52,NNW,347,3.0,6.0,-999,-99.99,,,-99.99,,2013-02-02 08:42:00,
2013-02-01 23:53:00,38.0,-99.9,29.52,North,357,3.0,5.0,-999,-99.99,,,-99.99,,2013-02-02 08:53:00,